Temperature
20 20 20 19 19 19 18 18 18 18 17 17 17 17 17 17 17 17 17 17 16 16 16 16 16 16 16 16 16 16 16 16 16 16 16 16 16 16 16 16 16 15 15
20 20 20 19 19 18 18 18 18 17 17 17 17 17 17 17 16 16 16 16 16 16 16 16 16 16 16 16 16 16 16 16 16 16 16 16 16 15 15 15 15 15 15
20 20 19 19 19 18 18 17 17 17 17 17 17 17 16 16 16 16 16 16 16 16 16 16 16 16 16 16 15 15 16 15 15 15 15 15 15 15 15 15 15 15 15
20 20 19 19 18 18 18 17 17 17 17 17 17 16 16 16 16 16 16 16 16 16 16 15 15 15 15 15 15 15 15 15 15 15 15 15 15 15 14 14 14 14 14
20 19 19 19 18 18 17 17 17 17 16 16 16 16 16 16 16 15 15 15 15 15 15 15 15 15 15 15 15 15 15 15 15 14 14 14 14 14 14 14 14 14 14
19 19 19 19 18 18 17 17 17 17 16 16 16 16 16 16 15 15 15 15 15 15 15 15 15 15 15 15 14 14 14 14 14 14 14 14 14 14 14 14 13 13 13
19 19 18 18 18 18 17 17 17 16 16 16 16 16 15 16 15 15 15 15 14 14 14 14 14 14 14 14 14 14 14 14 14 14 14 14 14 14 13 13 13 13 13
18 18 18 18 17 17 17 16 16 16 16 16 16 15 15 15 15 15 15 14 14 14 14 14 14 14 14 14 14 14 14 14 14 14 13 13 13 13 13 13 13 13 13
18 18 17 17 17 17 17 16 16 16 16 16 15 15 15 15 14 14 14 14 14 14 14 14 14 14 14 13 13 13 14 14 13 13 13 13 13 13 13 12 12 12 12
18 18 17 17 17 17 17 16 16 16 16 15 15 15 15 14 14 14 14 14 14 14 13 13 13 13 13 13 13 13 13 13 13 13 13 13 13 13 13 12 12 12 12
18 17 17 17 16 16 16 16 16 15 15 15 15 14 14 14 14 14 13 13 13 13 13 13 13 13 13 13 13 13 12 12 12 12 13 13 13 12 12 12 12 12 12
17 17 17 16 16 16 16 16 15 15 14 14 14 14 14 14 14 13 13 13 13 13 13 13 13 13 12 12 12 12 12 12 12 12 12 12 12 12 12 12 12 12 11
17 17 16 16 16 16 15 15 15 14 14 14 14 14 14 13 13 13 13 13 13 12 12 12 12 12 12 12 12 12 12 12 12 12 12 12 12 12 12 11 11 11 11
17 16 16 16 16 15 15 15 14 14 14 13 13 13 13 13 13 13 13 13 12 12 12 12 12 12 12 12 12 12 12 12 12 11 11 11 11 11 11 11 11 11 11
16 16 16 15 15 15 15 14 14 14 14 13 13 13 13 13 13 12 12 12 12 12 12 12 12 12 12 12 12 12 12 11 11 11 11 11 11 11 11 11 11 10 10
16 15 15 15 15 15 14 14 14 14 13 13 13 13 13 13 12 12 12 12 12 12 11 11 11 11 11 11 11 11 11 11 11 11 11 11 11 11 11 10 10 10 10
16 15 15 15 14 14 14 14 14 13 13 13 13 12 12 12 12 12 12 12 12 11 11 11 11 11 11 11 11 11 10 10 10 10 10 10 10 10 10 10 10 10 10
15 15 15 14 14 14 13 13 13 13 13 12 12 12 12 12 12 12 12 11 11 11 11 11 11 11 10 10 10 10 10 10 10 10 10 10 10 10 10 10 9 9 9
15 15 14 14 14 13 13 13 13 12 12 12 12 12 12 11 11 11 11 11 11 11 11 10 10 10 10 10 10 10 10 10 10 10 10 10 9 9 9 9 9 9 9
14 14 14 14 13 13 13 12 12 12 12 12 12 12 11 11 11 11 11 11 11 11 10 10 10 10 10 10 9 9 10 10 9 9 9 9 9 9 9 9 9 9 9
14 14 14 13 13 13 13 12 12 12 12 12 12 11 11 11 11 11 11 11 11 10 10 10 10 9 9 9 9 9 9 9 9 9 9 9 9 9 9 9 9 8 8
13 13 13 13 13 13 12 12 12 12 12 12 11 11 11 11 11 11 11 10 10 10 10 10 9 9 9 9 9 9 9 9 9 9 9 9 8 8 8 8 8 8 8
13 13 13 13 13 12 12 12 12 11 11 11 11 11 11 10 10 10 10 10 10 10 10 9 9 9 9 9 9 9 9 9 9 8 8 8 8 8 8 8 8 8 8
13 13 13 12 12 12 12 12 11 11 11 11 11 10 10 10 10 10 10 10 9 9 9 9 9 9 9 9 8 8 8 8 8 8 8 8 8 8 8 8 8 7 7
12 12 12 12 12 12 11 11 11 11 10 10 10 10 10 10 10 9 9 9 9 9 9 9 9 9 8 8 8 8 8 8 8 8 8 8 7 7 7 7 7 7 7
12 12 12 12 11 11 11 11 10 10 10 10 10 10 9 9 9 9 9 9 9 8 8 8 8 8 8 8 8 8 8 7 7 7 7 7 7 7 7 7 7 7 7
Wind_Speed
7 6 5 5 5 4 4 4 3 3 3 3 2 2 1 1 1 1 1 1 1 2 2 2 3 3 2 2 3 3 3 3 4 3 2 2 2 2 2 2 3 3 4
7 6 6 5 5 5 5 4 4 3 3 3 3 2 2 1 1 1 2 1 2 2 3 2 3 2 2 2 2 3 4 4 4 4 2 2 2 2 2 2 2 2 3
6 6 5 5 5 5 5 4 4 4 3 3 3 2 2 2 2 2 2 2 2 3 3 3 3 3 3 3 3 3 3 3 3 3 3 2 2 2 1 2 2 2 3
6 6 6 6 6 5 5 4 4 4 4 4 3 3 3 2 2 2 2 2 2 2 3 3 3 4 4 4 4 3 3 2 2 2 2 2 2 2 1 2 2 2 2
6 6 6 5 5 4 4 4 4 4 4 4 3 3 2 2 2 2 2 3 2 3 3 3 3 4 4 4 3 3 3 2 2 2 2 2 2 2 3 2 2 2 2
5 5 4 4 4 4 4 4 3 3 3 3 3 3 3 3 3 4 3 3 3 3 3 4 4 3 3 3 3 4 4 3 3 3 3 4 4 4 3 3 2 2 2
5 4 4 3 3 3 4 3 4 4 3 3 3 3 3 3 3 3 4 3 3 3 3 3 3 3 3 2 3 3 3 4 5 5 5 5 5 5 5 4 4 3 3
5 4 4 4 3 3 3 4 4 3 3 3 3 3 3 3 3 2 2 2 2 3 3 3 2 3 3 2 2 3 3 4 5 5 5 6 6 5 6 5 4 3 2
5 5 4 5 4 4 4 4 4 3 3 3 2 3 3 3 3 2 2 1 1 3 3 2 2 3 3 2 1 3 4 4 4 4 5 5 5 5 5 3 3 2 2
6 5 5 5 5 5 5 4 3 3 3 3 2 3 3 4 3 3 3 2 1 2 2 2 3 3 3 2 2 2 4 5 4 3 3 2 2 3 6 5 5 4 2
4 4 4 4 5 4 3 3 3 3 2 2 2 3 3 3 3 3 3 2 2 2 2 2 2 4 4 3 3 3 5 4 3 3 2 2 1 1 2 3 4 4 3
4 4 4 4 3 3 3 2 3 3 2 2 2 2 2 2 3 4 4 3 2 2 2 2 3 4 4 3 2 3 4 2 2 2 2 2 1 2 2 2 3 3 3
4 4 4 3 2 3 3 3 3 3 2 2 2 2 3 2 2 4 4 3 2 2 2 3 4 4 3 2 2 2 1 1 1 2 2 3 2 2 1 1 1 1 1
5 4 3 3 3 2 2 3 3 3 3 2 3 3 3 2 2 1 2 2 1 1 2 2 2 1 1 1 2 2 1 1 1 2 2 2 1 1 1 1 1 1 1
4 4 3 3 3 2 2 2 3 3 4 4 3 3 3 3 4 3 2 2 2 2 1 0 1 1 1 2 2 2 2 1 2 2 2 2 2 1 1 1 1 1 2
4 3 3 2 2 3 2 1 2 1 0 2 2 3 3 3 3 2 3 3 3 3 2 1 1 1 1 2 2 2 2 2 2 2 2 2 2 2 2 1 1 2 3
5 4 3 3 3 3 3 3 1 2 3 2 0 1 2 2 2 2 2 2 2 4 2 2 2 2 2 2 3 3 3 3 2 2 2 2 2 2 2 2 2 2 2
5 5 5 4 4 4 4 3 3 2 0 2 2 1 1 1 1 1 2 2 1 1 1 2 2 2 2 3 3 3 3 3 2 2 2 2 2 2 2 3 3 3 3
4 4 4 4 4 3 3 3 2 2 1 0 1 2 2 1 1 0 2 1 2 2 2 3 3 3 3 3 3 3 3 3 3 3 3 3 2 2 3 3 3 4 3
3 5 5 4 4 4 3 3 2 2 2 1 1 1 1 1 1 1 1 2 2 3 3 3 3 3 3 3 3 3 3 3 3 3 3 3 3 3 3 4 3 3 3
3 4 5 4 4 4 4 4 3 3 3 2 2 2 2 2 2 2 2 3 3 4 4 4 4 4 3 3 3 3 4 3 3 3 3 3 3 3 3 3 3 3 3
4 4 4 4 4 4 3 3 3 3 3 2 2 1 2 2 2 2 2 3 3 3 3 4 4 4 4 4 4 4 4 4 3 3 3 3 3 3 3 3 3 2 2
4 4 4 3 3 3 3 3 3 2 2 2 1 1 1 2 2 3 3 3 3 3 3 3 3 3 4 4 4 4 4 4 4 4 4 3 3 3 3 3 3 3 3
4 4 4 3 3 3 3 3 3 3 2 2 1 1 2 2 3 3 3 3 3 3 3 3 3 4 5 3 3 3 3 4 4 4 5 4 4 3 3 3 3 3 3
4 4 4 3 3 3 3 3 3 3 2 2 2 2 2 2 2 3 3 3 3 3 3 3 3 3 4 5 4 4 4 4 3 3 3 3 4 3 3 4 4 3 3
4 4 3 3 3 3 3 3 3 3 3 2 2 2 2 2 2 3 3 3 3 3 3 3 3 3 4 4 4 3 2 3 3 3 3 3 3 3 3 3 4 4 4
Wind_Direction
185 184 186 186 185 178 183 190 188 184 181 186 192 191 201 216 243 222 244 238 233 267 276 252 255 246 236 232 219 213 216 210 239 265 255 265 240 261 270 256 255 255 260
183 180 183 184 181 187 197 198 186 186 191 195 191 185 204 228 237 230 248 253 238 257 268 267 274 265 255 251 233 227 225 218 222 254 267 271 256 256 256 253 268 266 259
176 176 180 188 192 200 205 200 193 191 196 197 188 192 205 216 234 240 234 241 241 250 258 260 268 261 262 258 247 244 236 227 220 235 262 261 263 265 269 282 285 287 278
169 175 185 197 202 206 205 200 197 197 197 202 202 204 207 210 222 235 241 247 254 264 262 260 264 255 253 255 252 246 235 222 213 225 250 263 259 258 235 264 286 291 281
171 183 196 197 195 196 198 198 196 196 199 199 195 201 207 209 225 232 243 249 254 269 276 274 274 269 256 251 254 245 231 222 219 224 243 251 250 238 236 231 251 271 271
177 195 198 187 189 198 202 196 192 194 186 181 191 203 214 224 238 236 233 246 247 253 270 283 287 283 288 274 264 243 220 217 223 226 238 240 242 236 230 224 226 251 264
184 192 190 186 192 199 192 180 184 182 181 192 201 205 223 234 231 239 234 228 239 249 258 272 292 301 293 291 284 270 251 233 221 220 231 243 241 227 215 220 219 226 242
180 188 187 183 190 185 175 188 191 185 192 204 210 212 224 250 244 241 231 223 241 253 254 251 261 284 287 281 278 286 276 258 241 235 234 241 244 229 215 218 220 231 266
181 191 192 189 189 187 192 200 195 189 202 212 214 215 224 255 247 219 173 201 241 267 269 268 266 275 283 280 267 284 296 294 278 249 241 251 247 228 201 183 186 207 252
196 198 193 189 190 194 199 197 190 190 204 207 222 229 227 245 247 219 181 190 230 268 279 275 263 281 291 271 255 264 284 294 301 302 288 285 262 225 197 199 197 202 227
189 183 186 192 194 189 181 181 181 186 193 206 225 240 235 241 244 231 201 200 223 256 274 282 290 293 282 268 253 248 259 276 291 290 287 280 260 214 198 200 200 202 211
169 174 182 185 187 175 164 174 170 172 183 209 234 262 260 248 235 234 224 217 210 225 261 283 289 292 280 270 270 273 263 264 268 276 270 271 265 247 233 215 200 206 220
156 170 177 172 170 165 165 165 161 164 180 206 228 247 264 262 241 226 222 219 225 230 257 276 287 296 295 290 300 305 272 257 265 271 273 278 277 258 243 229 222 199 217
162 172 169 163 161 154 155 165 170 179 188 203 222 238 253 261 255 234 222 222 234 251 273 290 295 286 316 327 329 325 306 283 261 270 282 284 287 260 234 233 228 207 242
166 170 167 162 157 152 149 168 186 194 198 203 222 229 235 252 257 239 222 230 228 225 218 319 2 4 4 350 334 321 312 307 287 285 283 289 288 277 272 246 231 216 218
163 173 170 164 163 159 153 94 39 66 80 212 212 212 235 234 241 243 243 236 218 186 155 205 241 260 272 282 286 295 298 289 285 282 278 282 277 272 271 260 235 226 236
172 179 177 174 172 172 171 161 133 24 33 32 1 214 219 227 234 239 230 200 179 162 171 210 229 245 257 263 266 271 282 284 280 276 279 277 275 266 261 258 248 243 249
172 173 175 180 179 179 181 176 171 168 195 341 345 326 282 256 247 212 165 122 116 171 215 233 243 249 256 259 260 263 275 284 277 273 274 276 271 265 261 256 248 247 255
172 178 177 172 173 174 175 170 169 178 182 249 330 341 351 347 320 273 159 179 212 232 239 248 252 255 259 257 256 256 257 266 273 272 271 273 269 267 264 252 246 239 239
182 177 167 164 165 167 171 174 180 189 197 219 250 281 327 14 350 312 243 237 229 236 241 246 252 254 257 257 260 260 258 260 268 269 269 267 265 259 265 261 251 246 240
177 175 165 164 171 176 180 188 194 196 205 222 248 259 233 234 246 250 241 240 238 239 242 247 251 254 255 255 253 252 252 257 259 262 267 271 270 265 264 262 256 250 247
177 181 182 182 179 181 183 187 192 198 209 224 258 275 242 243 255 259 259 253 250 251 247 244 252 258 254 249 245 244 246 250 256 256 257 262 264 262 262 263 259 255 253
177 178 176 172 170 169 172 177 183 193 210 222 230 252 267 265 270 272 273 273 268 264 267 263 261 265 267 260 250 239 240 250 252 247 245 252 256 257 257 260 263 256 256
175 176 173 170 165 170 179 188 193 194 200 215 223 233 250 263 273 281 285 286 281 280 274 271 270 266 262 259 256 252 250 254 253 242 234 236 243 248 249 251 255 250 246
168 167 166 168 174 182 192 201 205 205 207 219 228 242 259 267 281 292 294 292 291 291 292 290 287 284 268 259 258 264 270 259 250 248 235 230 240 247 251 252 254 255 248
169 169 172 172 177 185 192 201 210 212 213 223 236 245 255 269 283 291 297 301 302 301 299 299 295 294 278 261 260 264 275 266 253 243 230 222 234 250 255 255 260 257 248
Height
1518 1520 1522 1523 1524 1526 1527 1528 1529 1529 1530 1530 1531 1531 1531 1531 1531 1531 1531 1531 1531 1531 1530 1530 1530 1530 1530 1530 1530 1530 1530 1530 1529 1528 1529 1529 1528 1528 1528 1528 1527 1527 1527
1515 1517 1518 1520 1522 1523 1524 1524 1526 1526 1527 1528 1528 1528 1529 1529 1529 1529 1529 1529 1528 1528 1528 1527 1527 1527 1527 1526 1526 1526 1526 1526 1526 1525 1525 1525 1525 1525 1525 1524 1524 1524 1524
1512 1514 1516 1517 1518 1519 1520 1522 1523 1523 1524 1524 1525 1525 1526 1526 1526 1526 1526 1526 1526 1525 1525 1524 1524 1524 1523 1523 1523 1523 1522 1522 1522 1522 1521 1521 1521 1521 1521 1521 1521 1520 1520
1510 1511 1513 1514 1515 1516 1517 1518 1519 1520 1521 1521 1522 1522 1523 1523 1523 1523 1523 1523 1523 1522 1522 1521 1521 1520 1520 1520 1519 1519 1519 1518 1518 1518 1518 1518 1517 1517 1517 1517 1517 1517 1517
1507 1508 1510 1511 1512 1514 1514 1515 1516 1517 1517 1518 1519 1519 1520 1520 1520 1520 1520 1520 1520 1519 1519 1518 1518 1517 1517 1517 1516 1516 1516 1515 1515 1514 1514 1514 1514 1513 1513 1513 1513 1513 1513
1505 1506 1507 1508 1509 1510 1511 1512 1513 1514 1514 1515 1516 1517 1517 1517 1516 1517 1517 1517 1517 1516 1516 1515 1515 1514 1514 1513 1513 1512 1512 1512 1511 1511 1510 1510 1510 1510 1510 1509 1510 1510 1509
1503 1504 1505 1506 1507 1507 1508 1509 1509 1510 1511 1512 1512 1513 1513 1513 1514 1514 1514 1514 1513 1513 1513 1512 1512 1512 1511 1510 1509 1509 1508 1508 1508 1507 1506 1506 1506 1506 1506 1506 1506 1506 1506
1500 1502 1503 1504 1504 1505 1506 1506 1507 1508 1509 1509 1509 1510 1510 1510 1511 1511 1511 1510 1510 1510 1509 1509 1509 1508 1508 1507 1506 1505 1504 1504 1503 1503 1502 1503 1503 1503 1503 1503 1502 1503 1503
1498 1499 1500 1501 1502 1502 1502 1503 1504 1505 1505 1505 1506 1506 1506 1507 1507 1507 1507 1507 1507 1506 1506 1506 1506 1505 1505 1504 1503 1502 1500 1500 1499 1498 1498 1498 1499 1499 1499 1499 1499 1499 1499
1496 1497 1498 1499 1499 1499 1500 1500 1501 1502 1502 1502 1503 1503 1503 1503 1504 1504 1504 1504 1503 1503 1503 1503 1502 1502 1502 1501 1500 1498 1497 1496 1495 1495 1494 1495 1495 1495 1495 1495 1495 1496 1495
1494 1495 1496 1496 1497 1497 1498 1498 1498 1499 1499 1499 1500 1500 1500 1500 1500 1500 1501 1500 1500 1500 1500 1499 1499 1499 1498 1497 1496 1495 1494 1493 1492 1492 1491 1491 1491 1491 1491 1492 1492 1493 1493
1492 1492 1493 1494 1495 1495 1495 1496 1496 1496 1496 1496 1496 1496 1496 1496 1496 1496 1497 1497 1497 1497 1496 1496 1496 1496 1495 1494 1493 1492 1491 1490 1489 1489 1488 1488 1487 1488 1488 1489 1489 1489 1490
1489 1490 1491 1492 1492 1492 1493 1493 1493 1493 1493 1493 1493 1493 1493 1492 1492 1493 1493 1493 1493 1494 1494 1493 1493 1493 1492 1491 1491 1490 1489 1487 1486 1486 1485 1485 1485 1485 1485 1486 1486 1486 1486
1486 1487 1488 1489 1489 1490 1490 1490 1490 1490 1490 1490 1490 1490 1490 1490 1489 1489 1490 1490 1490 1491 1490 1490 1490 1490 1489 1489 1488 1487 1486 1485 1484 1483 1483 1482 1482 1482 1482 1482 1482 1482 1483
1484 1485 1485 1486 1486 1487 1487 1487 1488 1488 1488 1487 1487 1487 1487 1487 1487 1487 1487 1487 1487 1487 1488 1487 1487 1486 1486 1485 1485 1484 1483 1482 1482 1481 1480 1480 1479 1479 1479 1479 1479 1479 1479
1481 1482 1483 1484 1484 1485 1485 1485 1485 1486 1486 1486 1485 1485 1485 1485 1485 1485 1485 1485 1485 1485 1485 1484 1484 1483 1482 1482 1482 1481 1480 1479 1479 1478 1478 1477 1476 1476 1476 1476 1476 1475 1475
1478 1479 1480 1481 1482 1482 1482 1482 1482 1483 1484 1484 1483 1483 1483 1483 1483 1482 1482 1482 1482 1482 1481 1481 1481 1481 1480 1480 1479 1478 1478 1477 1477 1476 1475 1474 1474 1473 1473 1473 1472 1472 1472
1475 1476 1477 1478 1479 1480 1480 1480 1480 1480 1480 1480 1481 1481 1480 1480 1480 1480 1480 1479 1479 1478 1478 1478 1478 1478 1477 1477 1476 1476 1475 1475 1474 1473 1472 1471 1471 1470 1470 1469 1469 1469 1469
1472 1473 1474 1476 1477 1478 1479 1479 1479 1479 1478 1478 1478 1478 1478 1478 1477 1477 1477 1476 1476 1476 1475 1475 1475 1475 1474 1474 1473 1473 1472 1472 1471 1470 1470 1469 1468 1468 1467 1466 1466 1466 1466
1470 1471 1472 1473 1474 1475 1476 1476 1477 1477 1477 1477 1476 1476 1476 1475 1474 1474 1474 1474 1473 1473 1473 1472 1472 1471 1471 1470 1470 1469 1469 1468 1468 1467 1467 1466 1465 1465 1464 1464 1463 1463 1462
1467 1468 1470 1470 1471 1472 1473 1474 1474 1474 1474 1474 1474 1474 1474 1473 1472 1472 1471 1471 1470 1470 1470 1469 1468 1468 1467 1467 1466 1466 1465 1464 1464 1463 1463 1463 1462 1461 1461 1460 1460 1460 1460
1465 1466 1467 1468 1468 1470 1470 1471 1472 1472 1472 1472 1472 1472 1472 1471 1471 1470 1469 1468 1467 1467 1467 1466 1465 1464 1464 1463 1463 1462 1461 1461 1460 1460 1459 1459 1458 1458 1457 1457 1456 1456 1456
1463 1463 1464 1465 1466 1467 1468 1469 1469 1470 1469 1469 1469 1469 1469 1469 1468 1467 1466 1465 1464 1464 1463 1462 1461 1461 1460 1460 1459 1458 1457 1457 1457 1456 1456 1455 1454 1454 1453 1453 1453 1453 1452
1460 1461 1462 1463 1464 1465 1466 1466 1467 1467 1467 1467 1467 1467 1466 1466 1465 1465 1464 1462 1461 1460 1459 1458 1457 1457 1456 1455 1455 1454 1453 1453 1453 1452 1452 1451 1451 1450 1450 1449 1449 1449 1449
1458 1458 1459 1460 1461 1462 1463 1464 1464 1464 1464 1464 1464 1464 1463 1463 1462 1462 1461 1459 1458 1456 1455 1454 1453 1452 1451 1451 1450 1450 1449 1449 1449 1449 1448 1447 1447 1446 1446 1446 1445 1445 1445
1455 1456 1457 1458 1459 1460 1460 1461 1461 1461 1461 1462 1462 1461 1461 1460 1459 1458 1457 1456 1454 1453 1452 1451 1449 1448 1447 1446 1446 1446 1445 1445 1445 1445 1444 1443 1443 1442 1442 1442 1441 1441 1441